User: anonymous
Location: Plymouth
(43.7570°N, 71.6890°W)
Time: 03:05:19
(UTC-04:00)
Language:

Cosmos 2016 Rocket - Orbit

View from above orbital plane
View from above orbital plane
View from above satellite
View from above satellite

Ground track
Ground track

The orbit data is extracted from the following two-line orbital elements,

1 19922U 89028B   14236.28371846  .00000072  00000-0  57198-4 0   719
2 19922 082.9577 109.2681 0035380 243.6123 254.7374 13.77110707275752
Epoch (UTC): 24 August 2014 06:48:33
Eccentricity: 0.0035380
inclination: 82.9577°
perigee height: 948 km
apogee height: 1000 km
right ascension of ascending node: 109.2681°
argument of perigee: 243.6123°
revolutions per day: 13.77110707
mean anomaly at epoch: 254.7374°
orbit number at epoch: 27575

The dashed part of the orbit path shows where the satellite is in the earth's shadow,  

DLR